Home > Time Zones > World Clock > Weather > France > Caen > Past weeks

Flag for France Weather past 2 weeks in Caen, France

Now
57 °F

Clear.


Feels Like: 55 °F
Forecast: 47 / 62 °F
Wind: 8 mph from Northwest

Location: Caen Airport

Current Time: Oct 25, 2014 at 6:50:48 PM

Latest Report: Oct 25, 2014 at 6:00 PM


Visibility: N/A

Pressure: 30.15 "Hg

Humidity: 77%

Dew point: 50 °F

Location of CaenLocation

Historic Weather in Caen — Graph

°F

Caen temperature yesterday

Maximum temperature yesterday: 61 °F (at 4:00 PM)
Minimum temperature yesterday: 55 °F (at 12:00 AM)
Average temperature yesterday: 57 °F

Past Weeks' High & Low Weather Summary

 TemperatureHumidityPressure
High75 °F (Oct 18, 2:30 PM)100% (Oct 11, 4:00 AM)30.39 "Hg (Oct 11, 4:00 AM)
Low45 °F (Oct 15, 2:00 AM)54% (Oct 21, 11:30 PM)29.36 "Hg (Oct 13, 2:00 AM)
Average57 °F84%29.92 "Hg
* Reported Oct 10 6:00 PM — Oct 25 6:00 PM, Caen, Weather by CustomWeather, © 2014

Note: Actual official high and low records may vary slightly from our data, if they occured in-between our weather recording intervals... More about our weather records

Advertising

Caen weather history for previous 24 hours

 ConditionsComfort  
Time TempWeatherWind HumidityBarometerVisibility
6:00 PM
Oct 25
57 °FClear.8 mph77%30.15 "HgN/A
5:30 PM61 °FClear.9 mph68%30.15 "HgN/A
5:00 PM61 °FClear.10 mph68%30.15 "HgN/A
4:30 PM61 °FOvercast.6 mph72%30.15 "HgN/A
4:00 PM61 °FMostly cloudy.7 mph72%30.15 "HgN/A
3:30 PM61 °FCloudy.3 mph72%30.15 "HgN/A
3:00 PM61 °FPartly sunny.7 mph72%30.15 "HgN/A
2:30 PM61 °FCloudy.3 mph72%30.15 "HgN/A
2:00 PM61 °FBroken clouds.5 mph68%30.15 "HgN/A
1:30 PM61 °FClear.3 mph68%30.15 "HgN/A
1:00 PM61 °FOvercast.2 mph72%30.15 "HgN/A
12:30 PM59 °FOvercast.2 mph77%30.15 "HgN/A
12:00 PM57 °FOvercast.6 mph82%30.15 "HgN/A
11:30 AM57 °FOvercast.7 mph82%30.15 "HgN/A
11:00 AM57 °FMostly cloudy.6 mph82%30.12 "HgN/A
10:30 AM55 °FOvercast.6 mph94%30.12 "HgN/A
10:00 AM55 °FOvercast.3 mph94%30.12 "HgN/A
9:30 AM54 °FMostly cloudy.2 mph94%30.09 "HgN/A
9:00 AM54 °FMostly cloudy.3 mph100%30.09 "HgN/A
8:30 AM54 °FMostly cloudy.3 mph100%30.09 "HgN/A
8:00 AM54 °FClear.5 mph94%30.09 "HgN/A
7:30 AM54 °FPassing clouds.3 mph94%30.07 "HgN/A
7:00 AM55 °FOvercast.2 mph94%30.07 "HgN/A
6:30 AM55 °FOvercast.3 mph94%30.07 "HgN/A
6:00 AM55 °FOvercast.5 mph100%30.07 "Hg6 mi
5:30 AM55 °FOvercast.5 mph100%30.07 "Hg4 mi
5:00 AM57 °FMostly cloudy.3 mph94%30.07 "Hg4 mi
4:30 AM57 °FMostly cloudy.5 mph94%30.07 "Hg5 mi
4:00 AM57 °FMostly cloudy.6 mph94%30.07 "Hg4 mi
3:30 AM57 °FOvercast.6 mph94%30.07 "Hg4 mi
3:00 AM57 °FFog.6 mph94%30.04 "Hg2 mi
2:30 AM57 °FFog.5 mph94%30.07 "Hg2 mi
2:00 AM57 °FLow clouds.7 mph94%30.07 "Hg4 mi
1:30 AM57 °FLow clouds.6 mph94%30.07 "HgN/A
1:00 AM57 °FMostly cloudy.6 mph88%30.04 "HgN/A
12:30 AM57 °FMostly cloudy.8 mph88%30.04 "HgN/A
12:00 AM57 °FMostly cloudy.8 mph88%30.04 "HgN/A
11:30 PM
Oct 24
57 °FMostly cloudy.10 mph88%30.04 "HgN/A
11:00 PM57 °FLight rain. Mostly cloudy.10 mph88%30.04 "HgN/A
10:30 PM57 °FMostly cloudy.9 mph82%30.04 "HgN/A
10:00 PM57 °FOvercast.12 mph82%30.04 "HgN/A
9:30 PM57 °FClear.12 mph82%30.01 "HgN/A
9:00 PM57 °FOvercast.10 mph88%30.01 "HgN/A
8:30 PM57 °FOvercast.8 mph88%30.01 "HgN/A
8:00 PM57 °FOvercast.6 mph88%30.01 "HgN/A
7:30 PM57 °FMore clouds than sun.8 mph88%30.01 "HgN/A
7:00 PM59 °FOvercast.10 mph82%30.01 "HgN/A
6:30 PM59 °FPartly sunny.10 mph82%30.01 "HgN/A
6:00 PM59 °FMostly cloudy.12 mph82%30.01 "HgN/A
Weather by CustomWeather, © 2014

See weather overviewHow to use our weather pages